Weather in Gorchukha

Russia / Kostroma Oblast     57°42′21″N   43°43′12″E
В апреле 2022 года жителям России запретили посещать сайт meteo.paraplan.net по решению Генеральной прокуратуры. Аудитория сайта уменьшилась в 10 раз. Владельцы сайта не видят смысла в поддержке погодного сервера в таких условиях. Сайт будет закрыт в октябре.
temp.,
°C
wind,
m/s
gust,
m/s
humid.,
%
clouds,
%
prec.,
mm/h
press.,
hPa
HPBL,
m
29 september, thu
thu2900:00+2e61393100 0.8 1009621
03:00+2e51294100 1.1 1009535
06:00+3e4995100 0.4 1008419
09:00+3e4896100 0.4 1009351
12:00+5e3696100 0.0 1011328
15:00+5ese2596100 0.0 1012307
18:00+5ese2398100 0.0 1014137
21:00+6ese2398100 0.0 101673
30 september, fri
fri3000:00+5ese239643 0.0 101751
03:00+6se259576 0.0 1018126
06:00+5se3697100 0.0 1019128
09:00+9sse4889100 0.0 1020310
12:00+13sse577862 0.0 1020585
15:00+15sse5874100 0.0 10191002
18:00+12sse41186100 0.0 1019478
21:00+12sse51388100 0.0 1019416
1 october, sat
sat100:00+10sse4129392 0.0 1018327
03:00+11sse4129099 0.0 1017431
06:00+11s41193100 0.4 1017439
09:00+12s3798100 1.9 1017391
12:00+13s2496100 0.0 1017333
15:00+13sse2496100 0.1 1016266
18:00+12se1299100 1.7 101592
21:00+12e2599100 4.4 1013171
2 october, sun
sun200:00+12e2499100 3.4 1011208
03:00+13s2699100 5.8 1010323
06:00+12sse3698100 0.6 1008243
09:00+13sse41097100 3.5 1006645
12:00+14w4685100 0.1 1007635
15:00+12wnw4691100 0.3 1008500
18:00+9nnw3692100 0.0 1010425
21:00+9n369195 0.1 1012483
3 october, mon
mon300:00+8n379195 0.0 1013386
03:00+6nne269622 0.0 1014194
06:00+7ne259644 0.0 1013146
09:00+10ene468688 0.0 1013338
12:00+12e4681100 0.0 1013426
15:00+12e51186100 0.0 1013462
18:00+12e51395100 0.1 1013403
21:00+13ese51396100 0.3 1012472